Time,TemperatureF,DewpointF,PressureIn,WindDirection,WindDirectionDegrees,WindSpeedMPH,WindSpeedGustMPH,Humidity,HourlyPrecipIn,Conditions,Clouds,dailyrainin,SoftwareType,DateUTC
2013-05-18 00:02:00,69.0,58.0,29.62,NNW,348,1.0,5.0,68,0.00,,,0.09,,2013-05-18 05:02:00,
2013-05-18 00:12:00,69.0,58.0,29.62,NNW,348,1.0,5.0,68,0.00,,,0.09,,2013-05-18 05:12:00,
2013-05-18 00:22:00,68.0,58.0,29.62,North,360,1.0,7.0,70,0.00,,,0.09,,2013-05-18 05:22:00,
2013-05-18 00:32:00,68.0,57.0,29.63,NW,310,1.0,10.0,69,0.00,,,0.09,,2013-05-18 05:32:00,
2013-05-18 00:42:00,68.0,57.0,29.63,NW,310,1.0,10.0,69,0.00,,,0.09,,2013-05-18 05:42:00,
2013-05-18 00:52:00,68.0,58.0,29.63,North,5,2.0,9.0,70,0.00,,,0.09,,2013-05-18 05:52:00,
2013-05-18 01:02:00,67.0,58.0,29.63,North,350,1.0,8.0,72,0.00,,,0.09,,2013-05-18 06:02:00,
2013-05-18 01:11:00,67.0,58.0,29.63,North,350,1.0,8.0,72,0.00,,,0.09,,2013-05-18 06:11:00,
2013-05-18 01:22:00,67.0,58.0,29.62,West,275,3.0,10.0,73,0.01,,,0.10,,2013-05-18 06:22:00,
2013-05-18 01:32:00,67.0,58.0,29.62,WNW,287,2.0,6.0,74,0.01,,,0.10,,2013-05-18 06:32:00,
2013-05-18 01:42:00,67.0,58.0,29.62,WNW,287,2.0,6.0,74,0.01,,,0.10,,2013-05-18 06:42:00,
2013-05-18 01:52:00,66.0,58.0,29.62,North,9,2.0,9.0,76,0.01,,,0.10,,2013-05-18 06:52:00,
2013-05-18 02:01:00,66.0,59.0,29.61,NNW,348,2.0,7.0,78,0.01,,,0.10,,2013-05-18 07:01:00,
2013-05-18 02:12:00,66.0,59.0,29.61,NNW,348,2.0,7.0,78,0.01,,,0.10,,2013-05-18 07:12:00,
2013-05-18 02:21:00,66.0,59.0,29.61,NNW,335,1.0,6.0,79,0.00,,,0.10,,2013-05-18 07:21:00,
2013-05-18 02:32:00,66.0,60.0,29.60,NNE,12,3.0,8.0,80,0.00,,,0.10,,2013-05-18 07:32:00,
2013-05-18 02:42:00,66.0,60.0,29.60,NNE,12,3.0,8.0,80,0.00,,,0.10,,2013-05-18 07:42:00,
2013-05-18 02:52:00,65.0,59.0,29.60,North,355,2.0,6.0,82,0.00,,,0.10,,2013-05-18 07:52:00,
2013-05-18 03:01:00,65.0,60.0,29.59,NW,309,2.0,9.0,83,0.00,,,0.10,,2013-05-18 08:01:00,
2013-05-18 03:11:00,65.0,60.0,29.59,NW,309,2.0,9.0,83,0.00,,,0.10,,2013-05-18 08:11:00,
2013-05-18 03:21:00,66.0,61.0,29.59,SW,222,1.0,7.0,83,0.00,,,0.10,,2013-05-18 08:21:00,
2013-05-18 03:32:00,66.0,61.0,29.59,North,5,2.0,8.0,83,0.00,,,0.10,,2013-05-18 08:32:00,
2013-05-18 03:42:00,66.0,61.0,29.59,North,5,2.0,8.0,83,0.00,,,0.10,,2013-05-18 08:42:00,
2013-05-18 03:52:00,66.0,61.0,29.59,North,5,2.0,14.0,83,0.00,,,0.10,,2013-05-18 08:52:00,
2013-05-18 04:02:00,66.0,61.0,29.59,WNW,298,2.0,8.0,83,0.00,,,0.10,,2013-05-18 09:02:00,
2013-05-18 04:11:00,66.0,61.0,29.59,WNW,298,2.0,8.0,83,0.00,,,0.10,,2013-05-18 09:11:00,
2013-05-18 04:22:00,66.0,61.0,29.58,North,5,3.0,8.0,83,0.00,,,0.10,,2013-05-18 09:22:00,
2013-05-18 04:32:00,66.0,61.0,29.59,NNE,12,1.0,7.0,83,0.00,,,0.09,,2013-05-18 09:32:00,
2013-05-18 04:43:00,66.0,61.0,29.59,NNE,12,1.0,7.0,83,0.00,,,0.09,,2013-05-18 09:43:00,
2013-05-18 04:53:00,66.0,61.0,29.59,ENE,78,2.0,7.0,83,0.00,,,0.09,,2013-05-18 09:53:00,
2013-05-18 05:03:00,66.0,61.0,29.59,NNE,19,2.0,5.0,84,0.00,,,0.09,,2013-05-18 10:03:00,
2013-05-18 05:12:00,66.0,61.0,29.59,NNE,19,2.0,5.0,84,0.00,,,0.09,,2013-05-18 10:12:00,
2013-05-18 05:23:00,66.0,61.0,29.58,NNW,345,3.0,9.0,84,0.00,,,0.09,,2013-05-18 10:23:00,
2013-05-18 05:33:00,66.0,61.0,29.57,NNE,19,3.0,7.0,83,0.00,,,0.09,,2013-05-18 10:33:00,
2013-05-18 05:42:00,66.0,61.0,29.57,NNE,19,3.0,7.0,83,0.00,,,0.09,,2013-05-18 10:42:00,
2013-05-18 05:52:00,66.0,61.0,29.57,NW,325,0.0,7.0,83,0.00,,,0.09,,2013-05-18 10:52:00,
2013-05-18 06:03:00,66.0,61.0,29.57,NNE,19,0.0,6.0,83,0.00,,,0.09,,2013-05-18 11:03:00,
2013-05-18 06:12:00,66.0,61.0,29.57,NNE,19,0.0,6.0,83,0.00,,,0.09,,2013-05-18 11:12:00,
2013-05-18 06:22:00,66.0,61.0,29.57,North,11,1.0,4.0,83,0.00,,,0.09,,2013-05-18 11:22:00,
2013-05-18 06:33:00,66.0,61.0,29.57,NE,53,2.0,4.0,84,0.00,,,0.09,,2013-05-18 11:33:00,
2013-05-18 06:42:00,66.0,61.0,29.57,NE,53,2.0,4.0,84,0.00,,,0.09,,2013-05-18 11:42:00,
2013-05-18 06:52:00,66.0,61.0,29.57,West,278,0.0,5.0,85,0.00,,,0.09,,2013-05-18 11:52:00,
2013-05-18 07:02:00,66.0,61.0,29.58,North,360,2.0,5.0,84,0.00,,,0.09,,2013-05-18 12:02:00,
2013-05-18 07:12:00,66.0,61.0,29.58,North,360,2.0,5.0,84,0.00,,,0.09,,2013-05-18 12:12:00,
2013-05-18 07:23:00,66.0,61.0,29.59,NNE,22,0.0,3.0,85,0.00,,,0.09,,2013-05-18 12:23:00,
2013-05-18 07:33:00,65.0,60.0,29.59,NNE,15,2.0,4.0,85,0.00,,,0.09,,2013-05-18 12:33:00,
2013-05-18 07:42:00,65.0,60.0,29.59,NNE,15,2.0,4.0,85,0.00,,,0.09,,2013-05-18 12:42:00,
2013-05-18 07:52:00,65.0,61.0,29.59,North,355,0.0,5.0,86,0.00,,,0.09,,2013-05-18 12:52:00,
2013-05-18 08:01:00,65.0,61.0,29.58,NE,36,2.0,7.0,86,0.00,,,0.09,,2013-05-18 13:01:00,
2013-05-18 08:11:00,65.0,61.0,29.58,NE,36,2.0,7.0,86,0.00,,,0.09,,2013-05-18 13:11:00,
2013-05-18 08:21:00,65.0,61.0,29.59,North,5,2.0,6.0,87,0.00,,,0.09,,2013-05-18 13:21:00,
2013-05-18 08:33:00,65.0,61.0,29.59,NNE,30,3.0,7.0,88,0.00,,,0.09,,2013-05-18 13:33:00,
2013-05-18 08:43:00,65.0,61.0,29.59,NNE,30,3.0,7.0,88,0.00,,,0.09,,2013-05-18 13:43:00,
2013-05-18 08:52:00,65.0,61.0,29.57,NNE,31,4.0,7.0,88,0.00,,,0.09,,2013-05-18 13:52:00,
2013-05-18 09:03:00,65.0,61.0,29.57,North,5,4.0,7.0,88,0.00,,,0.09,,2013-05-18 14:03:00,
2013-05-18 09:12:00,65.0,61.0,29.57,North,5,4.0,7.0,88,0.00,,,0.09,,2013-05-18 14:12:00,
2013-05-18 09:22:00,66.0,62.0,29.57,North,11,2.0,8.0,87,0.00,,,0.09,,2013-05-18 14:22:00,
2013-05-18 09:33:00,66.0,62.0,29.58,NNE,31,2.0,5.0,87,0.00,,,0.09,,2013-05-18 14:33:00,
2013-05-18 09:42:00,66.0,62.0,29.58,NNE,31,2.0,5.0,87,0.00,,,0.09,,2013-05-18 14:42:00,
2013-05-18 09:54:00,66.0,62.0,29.58,NNW,343,3.0,9.0,88,0.00,,,0.09,,2013-05-18 14:54:00,
2013-05-18 10:03:00,67.0,63.0,29.58,NNE,15,3.0,7.0,87,0.00,,,0.09,,2013-05-18 15:03:00,
2013-05-18 10:13:00,67.0,63.0,29.58,NNE,15,3.0,7.0,87,0.00,,,0.09,,2013-05-18 15:13:00,
2013-05-18 10:23:00,67.0,63.0,29.58,NNE,21,3.0,8.0,87,0.00,,,0.09,,2013-05-18 15:23:00,
2013-05-18 10:33:00,67.0,63.0,29.58,NNE,30,3.0,9.0,86,0.00,,,0.09,,2013-05-18 15:33:00,
2013-05-18 10:43:00,67.0,63.0,29.58,NNE,30,3.0,9.0,86,0.00,,,0.09,,2013-05-18 15:43:00,
2013-05-18 10:53:00,67.0,63.0,29.57,North,349,4.0,8.0,87,0.00,,,0.09,,2013-05-18 15:53:00,
2013-05-18 11:02:00,68.0,64.0,29.57,NNE,20,3.0,8.0,86,0.00,,,0.09,,2013-05-18 16:02:00,
2013-05-18 11:13:00,68.0,64.0,29.57,NNE,20,3.0,8.0,86,0.00,,,0.09,,2013-05-18 16:13:00,
2013-05-18 11:22:00,68.0,64.0,29.57,NNE,13,2.0,6.0,86,0.00,,,0.09,,2013-05-18 16:22:00,
2013-05-18 11:33:00,70.0,65.0,29.57,NNE,26,3.0,8.0,83,0.00,,,0.09,,2013-05-18 16:33:00,
2013-05-18 11:42:00,70.0,65.0,29.57,NNE,26,3.0,8.0,83,0.00,,,0.09,,2013-05-18 16:42:00,
2013-05-18 11:52:00,70.0,65.0,29.57,North,10,4.0,8.0,83,0.00,,,0.09,,2013-05-18 16:52:00,
2013-05-18 12:02:00,72.0,66.0,29.56,NNE,15,3.0,11.0,81,0.00,,,0.09,,2013-05-18 17:02:00,
2013-05-18 12:12:00,72.0,66.0,29.56,NNE,15,3.0,11.0,81,0.00,,,0.09,,2013-05-18 17:12:00,
2013-05-18 12:22:00,73.0,65.0,29.55,North,351,4.0,8.0,75,0.00,,,0.09,,2013-05-18 17:22:00,
2013-05-18 12:32:00,74.0,65.0,29.55,NE,54,1.0,6.0,73,0.00,,,0.09,,2013-05-18 17:32:00,
2013-05-18 12:42:00,74.0,65.0,29.55,NE,54,1.0,6.0,73,0.00,,,0.09,,2013-05-18 17:42:00,
2013-05-18 12:52:00,74.0,63.0,29.56,NE,48,4.0,8.0,69,0.00,,,0.09,,2013-05-18 17:52:00,
2013-05-18 13:01:00,75.0,63.0,29.55,NNE,18,5.0,9.0,67,0.00,,,0.09,,2013-05-18 18:01:00,
2013-05-18 13:12:00,75.0,63.0,29.55,NNE,18,5.0,9.0,67,0.00,,,0.09,,2013-05-18 18:12:00,
2013-05-18 13:21:00,77.0,64.0,29.54,NE,40,4.0,9.0,65,0.00,,,0.09,,2013-05-18 18:21:00,
2013-05-18 13:32:00,79.0,64.0,29.53,North,5,4.0,11.0,60,0.00,,,0.08,,2013-05-18 18:32:00,
2013-05-18 13:42:00,79.0,64.0,29.53,North,5,4.0,11.0,60,0.00,,,0.08,,2013-05-18 18:42:00,
2013-05-18 13:52:00,80.0,64.0,29.53,North,11,4.0,6.0,59,0.00,,,0.08,,2013-05-18 18:52:00,
2013-05-18 14:02:00,78.0,63.0,29.53,North,355,2.0,8.0,60,0.00,,,0.08,,2013-05-18 19:02:00,
2013-05-18 14:12:00,78.0,63.0,29.53,North,355,2.0,8.0,60,0.00,,,0.08,,2013-05-18 19:12:00,
2013-05-18 14:22:00,77.0,63.0,29.53,NNW,328,2.0,6.0,62,0.00,,,0.08,,2013-05-18 19:22:00,
2013-05-18 14:32:00,76.0,63.0,29.54,NNW,331,2.0,8.0,65,0.00,,,0.08,,2013-05-18 19:32:00,
2013-05-18 14:42:00,76.0,63.0,29.54,NNW,331,2.0,8.0,65,0.00,,,0.08,,2013-05-18 19:42:00,
2013-05-18 14:52:00,77.0,64.0,29.53,East,82,2.0,8.0,65,0.00,,,0.08,,2013-05-18 19:52:00,
2013-05-18 15:02:00,76.0,64.0,29.52,NNE,20,4.0,9.0,66,0.00,,,0.08,,2013-05-18 20:02:00,
2013-05-18 15:11:00,76.0,64.0,29.52,NNE,20,4.0,9.0,66,0.00,,,0.08,,2013-05-18 20:11:00,
2013-05-18 15:22:00,77.0,64.0,29.51,NNW,339,5.0,11.0,64,0.00,,,0.08,,2013-05-18 20:22:00,
2013-05-18 15:32:00,76.0,63.0,29.51,North,5,4.0,8.0,64,0.00,,,0.08,,2013-05-18 20:32:00,
2013-05-18 15:42:00,76.0,63.0,29.51,North,5,4.0,8.0,64,0.00,,,0.08,,2013-05-18 20:42:00,
2013-05-18 15:52:00,76.0,64.0,29.51,North,355,4.0,11.0,66,0.00,,,0.08,,2013-05-18 20:52:00,
2013-05-18 16:01:00,76.0,63.0,29.51,North,11,6.0,10.0,64,0.00,,,0.08,,2013-05-18 21:01:00,
2013-05-18 16:12:00,76.0,63.0,29.51,North,11,6.0,10.0,64,0.00,,,0.08,,2013-05-18 21:12:00,
2013-05-18 16:21:00,76.0,63.0,29.48,NNE,28,3.0,14.0,65,0.00,,,0.08,,2013-05-18 21:21:00,
2013-05-18 16:32:00,76.0,63.0,29.47,NNW,336,5.0,12.0,65,0.00,,,0.08,,2013-05-18 21:32:00,
2013-05-18 16:43:00,76.0,63.0,29.47,NNW,336,5.0,12.0,65,0.00,,,0.08,,2013-05-18 21:43:00,
2013-05-18 16:53:00,77.0,64.0,29.47,North,9,3.0,7.0,64,0.00,,,0.08,,2013-05-18 21:53:00,
2013-05-18 17:03:00,78.0,64.0,29.47,North,355,3.0,7.0,63,0.00,,,0.08,,2013-05-18 22:03:00,
2013-05-18 17:12:00,78.0,64.0,29.47,North,355,3.0,7.0,63,0.00,,,0.08,,2013-05-18 22:12:00,
2013-05-18 17:23:00,79.0,64.0,29.45,North,5,3.0,6.0,61,0.00,,,0.08,,2013-05-18 22:23:00,
2013-05-18 17:33:00,80.0,65.0,29.46,NNW,347,4.0,9.0,60,0.00,,,0.08,,2013-05-18 22:33:00,
2013-05-18 17:42:00,80.0,64.0,29.43,North,355,5.0,9.0,58,0.00,,,0.08,,2013-05-18 22:42:00,
2013-05-18 17:52:00,80.0,64.0,29.43,North,355,5.0,9.0,58,0.00,,,0.08,,2013-05-18 22:52:00,
2013-05-18 18:01:00,80.0,64.0,29.42,NNE,15,5.0,10.0,58,0.00,,,0.08,,2013-05-18 23:01:00,
2013-05-18 18:12:00,80.0,64.0,29.42,NNE,15,5.0,10.0,58,0.00,,,0.08,,2013-05-18 23:12:00,
2013-05-18 18:22:00,78.0,63.0,29.41,NNE,25,5.0,11.0,60,0.00,,,0.08,,2013-05-18 23:22:00,
2013-05-18 18:32:00,77.0,64.0,29.45,WNW,296,4.0,12.0,64,0.00,,,0.08,,2013-05-18 23:32:00,
2013-05-18 18:41:00,77.0,64.0,29.45,WNW,296,4.0,12.0,64,0.00,,,0.08,,2013-05-18 23:41:00,
2013-05-18 18:52:00,76.0,64.0,29.46,North,5,3.0,9.0,66,0.00,,,0.08,,2013-05-18 23:52:00,
2013-05-18 19:01:00,75.0,64.0,29.46,NW,315,3.0,7.0,68,0.00,,,0.08,,2013-05-19 00:01:00,
2013-05-18 19:12:00,75.0,64.0,29.46,NW,315,3.0,7.0,68,0.00,,,0.08,,2013-05-19 00:12:00,
2013-05-18 19:21:00,75.0,64.0,29.46,NNW,346,0.0,3.0,69,0.00,,,0.08,,2013-05-19 00:21:00,
2013-05-18 19:32:00,75.0,65.0,29.45,West,275,1.0,4.0,71,0.00,,,0.08,,2013-05-19 00:32:00,
2013-05-18 19:41:00,75.0,65.0,29.45,West,275,1.0,4.0,71,0.00,,,0.08,,2013-05-19 00:41:00,
2013-05-18 19:51:00,75.0,65.0,29.42,North,360,6.0,11.0,70,0.00,,,0.08,,2013-05-19 00:51:00,
2013-05-18 20:01:00,74.0,64.0,29.39,NW,319,10.0,22.0,70,0.00,,,0.08,,2013-05-19 01:01:00,
2013-05-18 20:11:00,74.0,64.0,29.39,NW,319,10.0,22.0,70,0.00,,,0.08,,2013-05-19 01:11:00,
2013-05-18 20:21:00,73.0,60.0,29.38,NNW,336,8.0,16.0,63,0.00,,,0.08,,2013-05-19 01:21:00,
2013-05-18 20:32:00,73.0,52.0,29.36,NNE,17,6.0,15.0,47,0.00,,,0.08,,2013-05-19 01:32:00,
2013-05-18 20:52:00,72.0,49.0,29.37,North,355,3.0,14.0,45,0.00,,,0.08,,2013-05-19 01:52:00,
2013-05-18 21:01:00,71.0,50.0,29.37,SE,126,0.0,4.0,48,0.00,,,0.08,,2013-05-19 02:01:00,
2013-05-18 21:11:00,71.0,50.0,29.37,SE,126,0.0,4.0,48,0.00,,,0.08,,2013-05-19 02:11:00,
2013-05-18 21:21:00,70.0,52.0,29.40,NE,51,0.0,2.0,52,0.00,,,0.08,,2013-05-19 02:21:00,
2013-05-18 21:32:00,65.0,49.0,29.47,SSE,165,14.0,31.0,57,0.00,,,0.04,,2013-05-19 02:32:00,
2013-05-18 21:42:00,65.0,49.0,29.47,SSE,165,14.0,31.0,57,0.00,,,0.04,,2013-05-19 02:42:00,
2013-05-18 21:52:00,62.0,50.0,29.50,SSW,202,5.0,15.0,64,0.00,,,0.04,,2013-05-19 02:52:00,
2013-05-18 22:01:00,61.0,50.0,29.52,South,191,5.0,13.0,68,0.00,,,0.04,,2013-05-19 03:01:00,
2013-05-18 22:22:00,60.0,50.0,29.54,SSW,198,2.0,9.0,69,0.00,,,0.04,,2013-05-19 03:22:00,
2013-05-18 22:33:00,60.0,51.0,29.53,SSW,208,2.0,7.0,71,0.00,,,0.02,,2013-05-19 03:33:00,
2013-05-18 22:53:00,59.0,50.0,29.54,SSW,207,1.0,5.0,73,0.00,,,0.02,,2013-05-19 03:53:00,
2013-05-18 23:02:00,59.0,50.0,29.50,South,184,2.0,6.0,73,0.00,,,0.02,,2013-05-19 04:02:00,
2013-05-18 23:12:00,59.0,50.0,29.50,South,184,2.0,6.0,73,0.00,,,0.02,,2013-05-19 04:12:00,
2013-05-18 23:23:00,59.0,51.0,29.49,NW,308,0.0,7.0,76,0.00,,,0.02,,2013-05-19 04:23:00,
2013-05-18 23:33:00,59.0,51.0,29.53,SE,146,3.0,7.0,76,0.00,,,0.01,,2013-05-19 04:33:00,
2013-05-18 23:42:00,59.0,51.0,29.53,SE,146,3.0,7.0,76,0.00,,,0.01,,2013-05-19 04:42:00,
2013-05-18 23:52:00,59.0,52.0,29.54,WSW,238,1.0,2.0,78,0.00,,,0.01,,2013-05-19 04:52:00,